Atlantic - Newfoundland: Past 24 Hour Conditions

 

Blanc-Sablon Airport

03:00 AM AST 20 September 2014
This table is a summary of hourly weather conditions for the past 24 hours.
Date / Time
(AST)
Wind(knots) Conditions Visibility(km) Pressure(kPa) Air tempC) Relative humidity(%) Dew pointC)
20 September 2014
3:00 W 12 gust 18 Mainly Clear 24 101.6 5 77 1
2:00 W 12 gust 19 Clear 24 101.6 5 80 2
1:00 W 13 gust 19 Clear 24 101.5 5 83 2
0:00 W 11 Mainly Clear 24 101.5 5 80 2
19 September 2014
23:00 W 10 gust 16 Mainly Clear 24 101.4 5 82 3
22:00 WNW 8 Mainly Clear 24 101.4 5 81 2
21:00 WNW 10 gust 17 Mainly Clear 24 101.3 5 82 2
20:00 W 15 Mainly Clear 24 101.2 6 79 3
19:00 W 12 gust 20 Partly Cloudy 24 101.2 6 77 2
18:00 W 17 gust 23 Partly Cloudy 24 101.1 7 67 1
17:00 WNW 11 Mainly Sunny 24 101.1 7 65 1
16:00 W 17 gust 23 Mostly Cloudy 24 101.1 9 50 -1
15:00 W 18 gust 24 Mainly Sunny 24 101.0 9 47 -2
14:00 W 18 gust 26 Mainly Sunny 24 101.0 10 41 -3
13:00 W 15 gust 22 Mainly Sunny 24 101.0 10 39 -4
12:00 WNW 12 gust 17 Mainly Sunny 24 101.0 10 45 -2
11:00 WNW 15 gust 21 Mainly Sunny 24 101.0 8 50 -1
10:00 WNW 11 Mainly Sunny 24 101.0 7 63 1
9:00 NW 9 Partly Cloudy 24 101.1 6 74 2
8:00 NW 7 Mostly Cloudy 24 101.0 6 75 2
7:00 N 5 Cloudy 24 101.0 5 80 1
6:00 NW 6 Cloudy 24 101.0 3 85 1
5:00 NW 8 Mostly Cloudy 24 100.9 3 85 1
4:00 NW 8 Cloudy 24 100.8 3 89 1
3:00 NW 9 gust 16 Cloudy 24 100.7 4 88 2
 
Map of Atlantic - Newfoundland marine weather areas Southwestern Grand Banks - 44138 Banquereau - 44139 Tail of the Bank - 44140 Nickerson Bank - 44251 Northeast Burgeo Bank - 44255 Blanc-Sablon Airport Cap Whittle Chevery Natashquan Airport Heath Point Miscou Island Grand Étang Ingonish Beach North Mountain St.Paul Island J.A. Douglas McCurdy Sydney Airport Charlottetown Airport East Point North Cape Argentia Bonavista Burgeo Cape Race Corner Brook Daniel's Harbour Englee Ferolle Point La Scie Port aux Basques Rocky Harbour Sagona Island St. Anthony Airport St. John's Int'l Airport St. Lawrence Stephenville Airport Twillingate Winterland Wreckhouse Cartwright Airport Mary's Harbour Grates Cove Pool's Island Marticot Island Long Pond Îles de la Madeleine Airport
Legend: buoyBuoy land stationLand Station